Home   Weather   Monterrey   Past weeks

Flag for Mexico Past Weather in Monterrey, Nuevo León, Mexico — Yesterday and Last 2 Weeks

Now
52 °F

Cloudy.


Feels Like: 47 °F
Forecast: 43 / 56 °F
Wind: 14 mph from Northeast

Location: Aerop. Internacional Monterrey - N. L.

Current Time: Dec 8, 2016 at 2:15:03 pm

Latest Report: Dec 8, 2016 at 1:40 pm


Visibility: 6 mi

Pressure: 30.37 "Hg (28.44 "Hg at 545m altitude)

Humidity: 77%

Dew Point: 45 °F

Location of MonterreyLocation

Past Weather in Monterrey — Graph

°F

Monterrey Temperature Yesterday

Maximum temperature yesterday: 73 °F (at 2:40 pm)
Minimum temperature yesterday: 48 °F (at 7:40 am)
Average temperature yesterday: 63 °F

High & Low Weather Summary for the Past Weeks

 TemperatureHumidityPressure
High93 °F (Nov 28, 1:41 pm)100% (Nov 26, 7:40 am)30.39 "Hg (Nov 26, 7:40 am)
Low48 °F (Dec 5, 6:04 am)8% (Nov 28, 3:41 pm)29.58 "Hg (Nov 29, 2:40 pm)
Average67 °F61%30.01 "Hg
* Reported Nov 23 12:40 pm — Dec 8 12:40 pm, Monterrey, Weather by CustomWeather, © 2016

Note: Actual official high and low records may vary slightly from our data, if they occured in-between our weather recording intervals... More about our weather records

Advertising

Monterrey Weather History for the Previous 24 Hours

Scroll right to see more
 ConditionsComfort  
Time TempWeatherWind HumidityBarometerVisibility
12:40 pm
Thu, Dec 8
52 °FCloudy.25 mph77%30.37 "Hg8 mi
11:40 am54 °FMostly cloudy.22 mph77%30.39 "Hg7 mi
10:40 am54 °FMostly cloudy.20 mph77%30.37 "Hg7 mi
9:47 am55 °FMostly cloudy.16 mph77%30.34 "Hg10 mi
8:40 am55 °FMostly cloudy.10 mph82%30.29 "Hg10 mi
7:40 am55 °FMostly cloudy.18 mph82%30.25 "Hg10 mi
6:49 am55 °FMostly cloudy.10 mph82%30.22 "Hg7 mi
11:41 pm
Wed, Dec 7
61 °FPassing clouds.5 mph88%30.12 "Hg7 mi
10:42 pm61 °FPassing clouds.5 mph88%30.11 "Hg10 mi
9:40 pm61 °FPassing clouds.6 mph88%30.09 "Hg10 mi
8:40 pm63 °FPassing clouds.3 mph83%30.07 "Hg10 mi
7:41 pm63 °FPassing clouds.2 mph77%30.05 "Hg10 mi
6:40 pm64 °FPassing clouds.6 mph73%30.02 "Hg10 mi
5:42 pm68 °FPartly sunny.8 mph64%30.00 "Hg12 mi
4:40 pm72 °FPartly sunny.8 mph53%29.98 "Hg12 mi
3:42 pm73 °FPartly sunny.5 mph44%29.97 "Hg12 mi
2:40 pm73 °FPartly sunny.3 mph44%29.95 "Hg12 mi
Weather by CustomWeather, © 2016

See weather overviewHow to use our weather pages